Probability
23 6 3 6 19 16 0 0 0 0 0 0 0 3 3 6 6 6 6 16 23 23 42 71 77 74 68 68 65 68 61 68 71 81 81 87 87 81 71 77 77 77 77 74 74 74 74 77 81
6 6 6 19 16 0 0 0 0 0 0 0 0 3 3 6 6 10 13 23 16 13 26 55 77 74 65 61 58 61 65 68 71 77 81 81 77 77 77 77 77 74 71 71 65 65 68 71 71
0 6 13 19 13 0 0 0 0 0 0 0 3 0 6 10 6 6 10 23 16 16 29 45 81 71 65 68 65 65 65 68 65 74 71 74 77 71 74 74 81 81 74 74 74 68 58 61 68
6 13 16 16 6 3 0 0 0 0 0 3 6 3 3 13 13 10 13 19 16 19 26 52 74 74 68 71 74 65 68 68 71 65 74 71 71 65 71 74 77 68 65 68 71 65 61 61 52
3 19 16 13 3 3 0 0 0 0 3 10 6 6 10 13 13 13 13 13 16 16 23 48 71 68 65 68 65 68 65 68 71 68 65 71 74 71 68 71 65 71 65 58 61 58 55 48 55
10 13 13 3 0 0 0 0 0 0 6 3 3 3 10 10 13 10 13 16 16 16 23 42 68 68 68 71 65 65 61 74 71 74 71 74 77 81 71 58 68 61 65 61 61 52 42 42 48
6 6 3 3 0 0 0 0 0 0 0 0 3 3 13 6 10 10 13 13 19 19 23 32 52 55 65 55 61 58 68 74 71 71 71 71 71 71 68 68 61 61 61 58 55 52 45 42 42
3 3 6 3 0 0 0 0 0 3 6 0 3 10 10 10 13 13 13 16 13 13 23 26 35 42 42 45 55 58 65 65 65 68 68 68 68 61 65 68 68 68 61 52 48 39 35 35 39
6 3 0 0 0 0 0 3 0 0 3 6 10 6 10 19 13 13 16 16 13 13 13 13 16 16 16 23 45 52 55 68 68 65 68 68 35 35 48 52 61 61 65 52 48 45 42 42 39
0 0 0 0 0 0 0 0 3 3 6 10 6 10 13 16 10 10 10 13 13 13 13 16 13 16 19 19 23 29 35 39 35 32 42 35 29 23 32 45 61 68 65 52 45 48 45 35 23
0 0 3 0 0 0 0 0 3 3 3 6 10 13 10 16 13 10 10 10 13 13 13 16 16 16 19 19 16 23 23 29 29 29 23 19 19 19 32 29 35 39 48 26 39 45 29 19 16
0 0 0 0 0 0 0 0 0 6 0 13 13 19 16 16 16 13 10 10 13 13 13 13 13 16 13 13 16 16 13 23 26 23 23 16 13 16 19 16 16 19 23 23 16 16 13 13 13
3 3 0 0 0 0 0 0 3 3 3 6 10 16 10 13 13 16 13 13 16 16 19 16 13 13 6 6 10 10 16 16 16 16 16 16 13 19 16 13 10 13 13 13 13 10 10 10 10
0 0 0 0 0 0 3 3 3 6 3 6 6 10 10 10 6 6 10 16 16 16 19 19 13 13 10 10 10 10 10 13 16 16 19 23 19 16 16 16 13 10 10 10 10 10 6 10 10
3 0 0 0 0 0 3 3 3 0 3 3 6 10 10 13 13 10 13 16 16 19 16 19 13 16 13 13 19 23 16 16 13 23 23 26 23 23 23 16 16 16 10 10 10 10 10 10 10
0 0 0 0 0 3 3 3 0 0 0 0 6 10 10 6 16 13 16 16 19 19 16 19 23 23 16 16 19 19 19 16 16 19 26 19 16 16 16 16 16 16 10 10 10 10 10 10 10
0 0 0 0 0 0 3 0 0 0 3 3 3 3 6 10 13 16 16 16 19 19 16 16 13 23 16 16 19 13 16 19 16 19 26 23 19 16 19 16 16 10 10 10 10 10 10 10 10
0 0 0 0 0 0 0 0 0 0 0 3 3 3 6 6 3 13 23 23 19 19 19 16 16 23 16 23 19 19 16 13 19 23 23 23 19 23 23 16 13 13 13 10 10 10 10 10 10
0 0 0 0 0 0 0 3 0 0 0 3 6 3 3 3 3 6 19 26 23 23 16 16 16 19 19 23 16 19 16 13 16 16 19 23 23 23 23 23 13 16 16 13 10 10 10 10 10
0 0 0 0 0 0 0 3 6 3 3 3 6 3 0 0 3 10 13 26 29 23 19 19 19 19 23 23 16 16 16 16 16 16 16 16 19 23 26 19 16 16 19 16 13 10 10 10 10
0 0 0 0 0 0 0 0 6 3 3 3 0 3 6 0 0 6 19 23 26 29 26 29 26 26 29 29 16 16 13 19 19 16 16 19 19 19 26 23 23 19 16 16 10 10 10 10 10
0 0 0 0 0 0 0 0 3 3 3 3 0 3 10 3 0 0 13 19 23 23 29 26 29 29 29 26 19 13 16 16 16 16 16 19 23 23 26 19 16 19 16 16 10 10 10 10 10
0 0 0 0 0 0 0 0 3 3 3 3 3 6 0 3 3 3 3 16 23 23 29 26 29 29 29 19 19 16 16 19 16 16 16 19 19 19 19 16 19 19 16 19 16 16 10 10 10
0 0 0 0 0 0 0 0 0 3 3 3 3 3 0 3 3 3 3 10 13 26 35 29 26 29 32 29 26 13 16 19 16 19 23 19 16 16 23 23 16 19 19 13 13 13 13 10 10
0 0 0 0 0 0 0 0 0 6 3 3 10 0 0 0 6 3 10 6 10 26 29 32 32 35 32 39 32 29 23 19 16 13 19 23 19 23 26 32 23 19 16 16 16 23 26 23 16
0 0 0 0 0 0 0 3 6 6 3 0 6 3 6 6 3 6 6 6 10 26 29 29 35 35 29 32 19 23 29 29 19 19 19 23 23 19 26 29 32 29 23 29 26 26 23 19 19
0 0 0 0 0 0 0 3 3 3 3 6 10 13 10 10 6 3 3 10 13 16 29 26 35 32 26 29 26 32 26 26 23 26 23 16 16 16 23 23 23 29 29 26 19 26 16 19 19
0 0 0 0 0 0 0 0 0 3 3 6 6 13 16 10 6 6 10 10 16 19 29 35 35 29 26 26 26 29 26 26 26 23 19 26 23 26 23 23 32 32 32 32 29 23 19 19 19
0 0 0 0 0 0 0 0 0 3 0 6 10 10 10 6 6 10 10 13 13 19 29 42 39 32 35 26 23 29 29 29 23 26 19 16 19 23 23 23 29 32 32 29 29 23 23 19 16
0 0 0 0 0 0 0 0 0 3 3 6 6 6 10 10 10 10 10 10 13 16 29 35 35 42 32 29 26 29 29 29 23 19 19 16 19 19 19 23 26 29 26 23 26 26 23 19 16
Height
5905 5905 5905 5905 5904 5903 5901 5901 5900 5900 5899 5898 5897 5896 5895 5894 5894 5895 5893 5892 5892 5892 5891 5891 5891 5891 5891 5891 5891 5891 5892 5892 5892 5893 5893 5893 5893 5894 5894 5894 5894 5894 5894 5894 5894 5894 5894 5894 5894
5906 5906 5907 5906 5904 5903 5903 5902 5902 5901 5900 5899 5898 5897 5896 5895 5894 5894 5893 5893 5893 5892 5892 5892 5891 5891 5891 5891 5892 5892 5892 5892 5893 5893 5893 5893 5893 5893 5894 5894 5894 5894 5894 5894 5894 5894 5894 5894 5894
5908 5907 5908 5906 5904 5904 5904 5903 5903 5902 5901 5900 5899 5898 5897 5896 5895 5895 5894 5894 5893 5893 5893 5892 5892 5892 5892 5892 5892 5892 5892 5893 5893 5893 5893 5893 5893 5893 5893 5893 5893 5893 5894 5893 5893 5893 5893 5893 5893
5910 5910 5909 5907 5905 5905 5905 5905 5904 5903 5903 5902 5900 5899 5898 5897 5896 5895 5895 5894 5894 5893 5893 5892 5892 5892 5892 5892 5892 5892 5893 5893 5893 5893 5893 5893 5893 5893 5893 5893 5893 5893 5893 5893 5893 5893 5893 5893 5893
5911 5911 5910 5908 5907 5906 5906 5905 5905 5905 5904 5903 5902 5900 5899 5898 5897 5896 5895 5895 5894 5894 5893 5893 5892 5892 5892 5892 5892 5893 5893 5893 5893 5893 5893 5893 5893 5893 5893 5893 5893 5893 5893 5893 5892 5892 5892 5892 5892
5913 5912 5911 5909 5908 5908 5907 5907 5907 5906 5905 5904 5903 5902 5900 5899 5898 5897 5896 5895 5894 5893 5893 5892 5892 5893 5892 5892 5892 5893 5893 5893 5893 5893 5893 5893 5893 5893 5893 5893 5892 5892 5892 5892 5891 5891 5891 5891 5891
5915 5913 5911 5910 5909 5909 5909 5908 5908 5907 5906 5905 5904 5903 5901 5900 5899 5898 5896 5895 5894 5893 5893 5892 5892 5892 5892 5892 5892 5892 5892 5893 5893 5893 5893 5893 5892 5892 5892 5892 5892 5892 5891 5890 5890 5890 5890 5890 5890
5915 5914 5912 5911 5911 5910 5910 5910 5909 5908 5907 5906 5905 5904 5903 5902 5900 5898 5897 5896 5895 5894 5893 5892 5892 5892 5892 5892 5892 5892 5892 5892 5892 5892 5892 5892 5892 5892 5892 5891 5891 5891 5890 5889 5889 5888 5888 5888 5888
5916 5916 5912 5912 5912 5911 5911 5911 5910 5909 5908 5907 5906 5905 5904 5903 5901 5900 5899 5897 5896 5894 5893 5892 5892 5893 5892 5892 5892 5892 5892 5892 5892 5891 5891 5891 5891 5891 5891 5891 5890 5889 5889 5888 5888 5887 5887 5887 5887
5917 5915 5914 5914 5913 5912 5912 5912 5911 5909 5908 5907 5906 5905 5904 5903 5902 5900 5900 5898 5897 5895 5894 5893 5893 5893 5893 5892 5892 5892 5892 5892 5891 5891 5891 5891 5890 5890 5890 5890 5889 5888 5888 5888 5887 5886 5886 5886 5885
5916 5916 5915 5914 5914 5913 5913 5912 5912 5910 5909 5908 5907 5905 5904 5903 5902 5901 5900 5899 5898 5896 5895 5894 5894 5893 5893 5892 5892 5892 5892 5891 5891 5891 5891 5890 5890 5889 5889 5888 5888 5887 5887 5886 5886 5885 5884 5884 5884
5917 5916 5916 5915 5915 5914 5913 5913 5912 5911 5910 5909 5907 5906 5905 5904 5903 5901 5900 5899 5898 5897 5896 5895 5895 5894 5894 5893 5893 5892 5892 5891 5891 5891 5890 5890 5889 5888 5887 5887 5887 5886 5886 5885 5884 5883 5883 5882 5882
5917 5917 5917 5916 5915 5915 5914 5913 5913 5911 5910 5909 5908 5907 5906 5905 5903 5902 5901 5899 5899 5898 5897 5896 5895 5894 5893 5893 5892 5892 5891 5891 5891 5890 5889 5889 5888 5887 5886 5886 5885 5884 5884 5883 5882 5881 5881 5881 5880
5917 5917 5916 5916 5915 5915 5915 5914 5913 5912 5910 5910 5909 5908 5907 5905 5903 5902 5901 5900 5899 5898 5897 5896 5895 5894 5893 5892 5892 5891 5891 5890 5890 5889 5888 5888 5887 5886 5885 5884 5884 5883 5882 5881 5881 5880 5879 5879 5878
5917 5917 5917 5916 5916 5915 5915 5914 5913 5912 5911 5911 5909 5908 5907 5905 5904 5903 5901 5900 5899 5898 5897 5896 5895 5894 5894 5893 5892 5891 5890 5889 5889 5888 5887 5887 5886 5885 5884 5883 5882 5881 5880 5880 5879 5878 5878 5877 5877
5917 5918 5918 5917 5916 5915 5916 5914 5913 5912 5911 5911 5910 5909 5907 5905 5904 5903 5902 5901 5899 5898 5897 5896 5895 5894 5893 5893 5892 5891 5890 5889 5888 5887 5886 5885 5884 5884 5883 5882 5881 5880 5879 5878 5877 5877 5876 5875 5875
5917 5917 5917 5917 5915 5915 5915 5914 5913 5912 5912 5911 5910 5909 5907 5906 5904 5903 5902 5901 5900 5899 5897 5896 5895 5894 5893 5892 5891 5890 5889 5888 5887 5885 5884 5884 5883 5882 5882 5880 5879 5878 5877 5876 5876 5875 5874 5873 5873
5916 5916 5915 5915 5915 5914 5914 5913 5912 5912 5911 5911 5910 5908 5907 5906 5904 5903 5903 5901 5900 5898 5897 5896 5894 5893 5892 5891 5890 5889 5888 5887 5885 5884 5883 5882 5881 5881 5880 5879 5878 5877 5876 5875 5874 5873 5872 5872 5871
5914 5914 5914 5915 5914 5913 5913 5912 5912 5911 5910 5910 5909 5908 5907 5905 5904 5903 5903 5901 5900 5898 5897 5895 5894 5892 5891 5890 5889 5888 5887 5885 5884 5883 5882 5881 5880 5879 5878 5877 5876 5875 5874 5874 5873 5872 5871 5870 5869
5913 5913 5913 5913 5913 5912 5912 5911 5911 5910 5909 5909 5908 5907 5906 5905 5904 5903 5902 5901 5899 5898 5896 5895 5893 5892 5890 5889 5888 5887 5886 5884 5883 5882 5881 5880 5879 5878 5877 5876 5875 5874 5873 5872 5872 5871 5869 5868 5867
5912 5912 5912 5911 5911 5910 5910 5910 5909 5909 5908 5908 5907 5906 5905 5904 5903 5903 5901 5900 5898 5897 5895 5894 5892 5891 5890 5888 5887 5886 5884 5883 5882 5881 5880 5879 5878 5877 5876 5875 5874 5873 5872 5871 5870 5869 5868 5867 5865
5910 5910 5911 5910 5910 5909 5909 5908 5908 5907 5907 5906 5906 5905 5904 5903 5902 5901 5900 5898 5897 5896 5894 5892 5891 5890 5888 5887 5885 5884 5883 5882 5881 5879 5878 5877 5876 5875 5874 5873 5872 5871 5870 5869 5868 5867 5865 5864 5863
5908 5908 5908 5908 5908 5907 5907 5906 5907 5906 5905 5905 5904 5903 5902 5901 5900 5899 5898 5897 5896 5894 5892 5891 5889 5888 5887 5885 5884 5882 5881 5880 5879 5878 5876 5875 5874 5873 5872 5871 5870 5869 5868 5866 5865 5864 5863 5861 5860
5905 5906 5905 5905 5905 5906 5906 5905 5904 5904 5904 5903 5902 5901 5900 5899 5898 5897 5896 5895 5894 5892 5890 5889 5887 5886 5885 5883 5882 5880 5879 5878 5877 5875 5874 5873 5872 5871 5870 5869 5868 5866 5865 5864 5862 5861 5859 5858 5857
5902 5903 5903 5903 5902 5903 5903 5901 5902 5902 5901 5900 5899 5899 5898 5897 5896 5895 5893 5892 5891 5889 5888 5886 5885 5883 5882 5881 5879 5878 5877 5875 5874 5873 5872 5871 5870 5869 5867 5866 5865 5864 5862 5860 5858 5857 5856 5855 5854
5899 5900 5901 5900 5900 5900 5899 5898 5899 5899 5898 5897 5897 5896 5895 5895 5893 5892 5890 5889 5887 5885 5884 5883 5882 5881 5879 5877 5876 5875 5874 5873 5871 5870 5868 5867 5866 5865 5864 5863 5862 5861 5859 5858 5856 5855 5853 5852 5851
5895 5896 5897 5897 5896 5896 5895 5896 5895 5895 5895 5895 5894 5893 5893 5892 5891 5889 5887 5886 5884 5882 5881 5880 5879 5877 5876 5874 5873 5871 5869 5869 5868 5866 5865 5864 5863 5862 5861 5859 5858 5857 5856 5854 5853 5851 5850 5848 5847
5892 5892 5893 5892 5892 5891 5892 5892 5893 5892 5892 5892 5892 5891 5890 5889 5888 5886 5884 5882 5881 5880 5878 5877 5875 5874 5872 5870 5869 5868 5867 5865 5864 5863 5862 5861 5860 5858 5857 5856 5854 5853 5851 5850 5849 5847 5846 5845 5843
5888 5888 5888 5888 5888 5888 5887 5890 5890 5890 5889 5889 5889 5888 5886 5885 5883 5882 5880 5879 5878 5877 5875 5874 5872 5870 5868 5866 5865 5865 5863 5862 5860 5859 5858 5857 5855 5854 5853 5851 5850 5849 5847 5846 5844 5843 5842 5840 5839
5883 5883 5883 5884 5884 5884 5883 5887 5885 5885 5885 5884 5884 5883 5882 5881 5879 5878 5877 5875 5874 5872 5871 5870 5868 5866 5864 5863 5862 5861 5860 5858 5857 5855 5854 5852 5851 5850 5848 5847 5845 5844 5843 5841 5840 5838 5837 5836 5834
Wind_Speed
12 12 11 11 11 12 13 13 13 12 12 10 9 9 8 8 9 8 6 6 5 5 5 4 3 3 3 3 2 2 2 2 2 3 3 3 4 4 3 3 3 3 3 2 2 2 2 3 4
12 12 12 12 12 12 13 13 13 13 12 11 9 8 8 8 8 8 7 6 5 5 4 4 3 3 3 2 2 2 2 2 2 3 2 2 3 4 4 3 3 3 3 3 2 2 3 3 3
13 12 12 13 13 13 14 14 13 13 12 11 10 9 8 8 8 7 6 6 6 5 4 4 4 4 3 3 3 2 2 2 2 2 1 2 2 3 4 3 3 3 3 3 3 2 3 3 3
12 12 12 12 13 13 13 13 13 13 12 11 11 10 9 8 8 7 7 7 6 5 5 4 4 3 3 3 2 3 2 2 2 1 1 1 1 2 3 3 2 2 2 3 3 3 3 3 3
12 12 12 13 14 14 13 13 13 12 12 12 12 11 10 9 8 8 8 7 6 5 4 3 3 3 2 3 3 3 3 2 2 1 1 0 0 1 2 2 2 2 2 3 3 4 3 3 4
11 11 12 14 14 13 13 13 13 12 12 12 12 11 11 10 9 8 8 8 7 6 4 3 3 2 2 2 3 2 2 1 1 1 1 1 1 1 1 1 2 3 3 3 3 4 4 4 4
10 10 12 13 12 11 11 12 12 11 11 11 11 11 11 11 10 9 8 8 8 6 5 4 3 2 2 2 2 2 2 2 1 1 0 1 1 1 1 2 2 3 4 4 3 4 5 5 5
9 10 12 12 12 12 11 10 12 11 10 10 10 10 10 10 10 10 9 8 8 7 6 5 4 3 2 2 2 2 2 1 1 0 1 0 1 1 2 3 3 4 4 4 3 4 5 6 6
9 8 11 11 11 11 11 9 11 11 11 10 10 10 10 10 10 9 9 9 8 8 7 6 5 4 3 3 3 2 2 2 1 1 1 0 1 2 2 3 3 4 3 3 3 4 5 5 5
8 8 10 10 10 10 10 10 10 11 12 10 10 10 10 10 10 9 8 8 8 8 7 7 5 5 4 4 3 3 3 2 2 2 2 2 2 3 3 3 3 3 3 3 4 4 4 4 5
6 6 9 10 10 10 9 9 10 10 11 10 10 10 10 10 9 8 7 7 7 7 7 7 6 5 5 5 4 4 4 3 3 3 3 3 3 3 3 3 3 3 4 4 4 4 4 4 5
6 6 7 9 9 9 9 9 9 10 10 10 10 10 10 10 9 8 7 7 7 7 7 6 6 6 5 5 4 4 3 3 3 3 3 3 3 3 3 3 4 4 4 5 5 5 5 5 6
5 6 7 6 7 7 8 8 8 9 10 11 10 10 10 10 10 9 8 8 8 7 7 7 7 7 6 6 5 4 4 3 2 2 3 3 3 3 3 3 4 5 5 5 5 5 5 6 6
4 4 5 5 7 7 7 7 7 9 10 11 11 10 9 10 10 10 9 8 8 8 8 8 7 8 7 5 5 5 4 3 3 3 3 3 3 3 3 4 4 4 4 5 5 5 5 5 6
3 3 4 5 7 7 6 6 8 9 9 10 10 11 10 10 9 10 10 9 9 9 8 8 7 7 7 6 6 6 5 4 4 4 4 3 3 3 3 4 4 4 4 5 5 5 5 5 6
1 1 3 4 5 6 5 6 8 9 9 9 10 11 11 10 9 9 9 9 9 9 9 8 8 7 7 6 6 5 4 4 4 4 4 4 4 4 4 4 5 5 5 5 5 5 5 6 6
1 1 2 3 4 4 5 6 7 9 9 8 9 10 10 10 9 9 9 8 8 8 8 8 8 8 7 7 6 6 5 5 5 5 5 5 5 5 5 4 4 5 5 4 5 6 6 5 5
3 2 2 2 3 3 5 5 6 7 8 8 8 9 9 9 9 9 9 9 9 8 8 8 8 8 7 7 7 6 6 5 5 6 5 5 4 4 4 4 5 4 4 5 4 5 5 5 5
5 4 3 3 3 4 5 6 5 6 7 8 8 8 9 9 8 9 9 9 8 8 8 8 8 7 7 7 7 6 6 6 6 6 5 5 4 5 5 5 5 5 4 4 4 4 5 5 6
6 6 4 4 4 5 6 6 5 5 6 7 8 9 9 9 8 8 9 8 8 8 8 8 8 7 7 7 6 6 6 6 6 6 5 5 5 5 5 5 4 5 4 4 5 5 6 7 7
6 7 6 6 5 5 7 7 6 5 6 7 8 9 9 9 9 8 9 8 8 8 9 9 8 8 8 7 7 6 7 7 6 5 5 5 5 5 5 5 5 5 6 6 6 7 7 8 8
6 6 8 7 6 6 7 8 7 6 6 6 8 9 9 10 10 9 9 8 9 9 9 9 9 8 8 8 7 7 7 7 7 6 6 5 5 5 5 5 6 6 6 7 8 9 9 9 10
8 8 9 9 7 7 7 9 9 9 8 7 8 8 9 10 11 11 11 10 10 10 10 9 8 8 8 8 8 8 8 8 7 7 6 5 5 5 6 7 7 7 8 9 10 10 9 10 11
10 10 10 11 11 9 8 10 11 10 10 9 9 9 9 10 11 11 11 11 11 11 10 9 9 8 8 8 8 8 8 7 7 7 7 7 7 7 8 8 9 9 10 10 11 11 10 11 11
11 11 11 12 14 11 10 11 10 10 10 9 9 10 11 11 11 12 11 12 12 11 11 11 10 9 9 9 9 9 9 9 8 9 9 9 9 10 9 9 10 11 11 10 11 11 11 12 12
12 13 13 14 14 12 12 13 11 10 9 9 10 10 11 12 12 13 13 12 12 12 11 12 11 11 11 11 11 10 10 10 10 10 11 11 11 11 11 11 11 12 12 12 11 12 12 13 13
13 14 14 14 14 14 14 13 13 11 10 10 11 11 12 14 14 14 14 14 13 12 13 14 13 12 13 13 12 12 11 11 12 12 11 11 12 12 12 12 12 13 13 13 13 14 14 14 15
15 14 16 16 15 15 15 15 13 12 12 12 12 13 13 14 14 15 15 14 13 13 14 14 13 13 13 14 13 13 12 13 13 12 12 12 12 12 13 13 14 14 14 15 15 15 15 16 16
16 16 16 17 17 17 18 16 14 14 14 14 15 15 15 15 15 16 15 15 16 15 15 15 15 14 14 14 14 13 13 13 13 13 13 14 14 14 15 15 15 16 16 15 16 16 16 16 16
17 17 18 19 19 20 20 19 17 16 16 16 17 17 17 17 18 17 17 17 16 16 16 17 16 15 15 15 15 14 15 15 15 15 15 15 16 17 17 17 17 17 17 17 17 17 17 18 17
Wind_Direction
87 81 79 77 73 72 63 53 47 45 40 41 42 41 40 43 53 58 64 71 70 63 60 68 77 86 84 89 105 117 124 129 138 152 163 182 194 192 194 192 199 201 209 207 207 220 226 217 204
83 78 76 72 70 66 60 54 47 47 44 42 45 44 43 46 54 64 66 67 64 62 62 70 79 90 89 89 94 114 122 139 144 144 143 176 198 211 207 210 210 219 223 228 230 231 232 230 217
79 73 72 72 71 64 55 50 44 41 43 46 44 47 47 48 50 55 57 55 57 59 64 74 77 75 74 81 97 117 138 145 150 146 139 157 181 206 215 227 224 224 236 241 233 245 243 247 239
73 63 68 71 63 59 57 50 44 42 43 48 45 45 46 47 53 53 53 52 54 57 65 73 73 70 67 70 98 129 143 153 157 163 154 143 198 221 225 247 224 233 254 257 250 248 250 248 240
75 64 61 64 59 56 56 49 45 46 45 47 45 46 49 50 52 54 52 49 47 47 51 61 70 67 69 82 91 109 128 141 143 148 103 114 222 235 237 250 242 241 258 271 260 251 250 250 239
76 70 60 60 57 53 50 41 37 39 43 45 45 46 47 49 48 46 46 43 42 43 41 52 60 58 81 99 102 98 102 110 107 116 180 200 195 229 262 266 266 261 264 267 267 264 256 258 245
77 70 63 58 54 48 43 36 34 38 41 43 42 44 43 44 43 40 39 37 37 39 40 45 57 70 85 88 101 109 109 101 104 122 229 226 230 248 292 291 289 281 281 281 272 260 257 262 255
81 70 67 60 53 52 47 36 34 35 36 37 37 40 42 40 40 39 36 36 34 36 45 54 64 74 85 89 101 100 105 97 106 132 195 25 311 288 304 306 298 292 294 292 280 266 258 261 262
84 67 63 57 47 43 39 34 35 29 31 34 35 36 38 38 36 36 35 36 33 36 45 54 66 73 81 76 81 78 70 56 67 77 99 32 309 302 306 316 310 296 294 292 280 269 259 259 261
87 68 58 47 42 40 35 30 30 28 29 31 35 36 36 34 33 31 32 38 39 39 46 46 52 61 67 66 64 66 55 52 70 55 26 349 312 310 312 319 325 307 294 291 286 275 267 264 267
86 65 55 47 40 35 35 30 28 32 31 30 33 34 33 31 30 29 34 39 40 41 43 44 45 47 51 49 45 55 55 53 48 40 22 4 337 316 311 309 309 310 295 290 286 283 277 279 273
82 80 65 54 43 32 31 26 29 31 30 35 35 33 31 34 30 31 36 36 38 38 38 39 35 36 38 37 38 44 52 45 26 19 7 355 345 331 322 307 298 301 301 303 297 282 278 279 279
99 92 79 60 47 34 30 26 31 33 31 32 35 33 33 35 35 35 36 36 32 31 30 31 31 28 30 33 28 27 32 26 19 4 349 343 347 341 334 315 305 297 295 300 302 290 278 278 282
99 80 73 57 43 30 30 33 40 36 30 30 31 30 30 31 34 38 39 39 36 33 30 31 31 30 32 31 26 17 14 9 3 350 344 343 338 334 331 329 316 302 290 289 292 284 279 280 279
95 52 47 47 48 32 24 28 37 34 28 25 27 29 29 26 28 33 33 33 32 31 28 28 28 26 26 26 21 11 11 4 354 350 346 344 339 341 338 333 323 308 296 288 285 279 279 279 278
123 38 25 41 57 39 26 22 27 27 26 24 27 31 29 23 22 23 25 26 25 23 22 23 22 17 14 13 8 1 357 352 341 341 343 345 344 340 333 323 316 311 306 293 282 277 277 279 282
208 6 19 41 39 29 3 9 15 19 18 17 18 23 24 23 24 22 21 18 17 13 11 12 13 12 12 9 2 355 352 348 344 344 345 340 337 332 331 326 319 310 301 295 289 284 282 278 283
228 245 278 306 353 348 345 355 6 6 2 4 7 12 14 13 15 15 14 10 5 1 0 0 1 5 7 4 0 357 353 349 345 347 350 345 334 328 324 324 325 321 311 311 302 290 288 284 281
223 228 240 263 301 313 326 339 343 345 348 350 352 357 1 3 6 7 4 360 356 353 352 354 354 358 359 357 353 350 343 342 343 343 345 346 343 338 329 324 331 327 323 329 316 296 296 295 288
234 236 245 253 267 290 305 317 326 323 331 339 343 348 351 351 353 352 350 352 354 350 348 345 345 349 349 346 343 339 337 337 336 336 332 334 335 332 331 323 320 324 329 332 321 306 300 292 289
241 249 255 251 254 272 292 296 298 302 315 328 336 342 348 348 344 344 350 348 345 343 339 337 336 338 339 338 335 328 329 333 332 332 327 326 328 324 318 317 311 316 320 313 306 303 297 294 293
242 253 252 241 252 268 291 291 294 291 295 313 329 334 338 340 339 335 338 340 338 335 331 330 328 326 327 327 326 321 320 322 321 316 313 311 313 316 313 306 300 302 309 309 305 301 299 296 294
253 255 253 245 248 258 276 286 293 287 294 303 310 317 326 330 330 327 326 327 332 331 325 325 323 321 322 322 318 318 314 311 307 301 300 300 305 308 306 305 307 302 305 304 303 303 301 298 298
248 254 251 248 255 257 264 278 288 287 295 297 302 308 312 317 324 323 314 316 320 321 318 316 318 320 324 322 320 323 321 312 302 297 297 298 299 298 300 301 304 301 300 299 297 296 295 299 302
242 253 254 250 251 258 265 266 280 284 287 290 303 305 306 309 313 315 309 304 307 309 312 313 312 311 314 318 314 313 312 311 306 300 292 293 294 294 298 299 299 301 300 296 300 300 300 299 300
238 250 255 255 253 254 262 265 269 281 294 296 300 304 308 313 311 311 309 306 304 303 308 311 306 306 309 311 307 306 305 301 300 297 290 288 291 293 295 297 298 299 295 293 296 297 297 298 297
237 247 252 255 253 255 256 260 265 277 288 289 296 302 308 312 310 309 311 307 305 308 310 310 303 304 307 309 304 303 296 296 297 291 291 292 292 292 295 297 296 294 290 289 290 292 294 296 295
242 248 248 252 257 259 261 259 262 273 280 285 291 297 304 307 305 303 303 304 303 306 306 306 301 301 300 303 304 304 298 296 293 291 290 292 295 296 297 296 295 292 289 290 291 290 289 291 291
238 243 248 253 257 264 265 262 265 265 272 281 286 290 294 297 297 296 296 298 303 305 305 304 300 299 302 304 302 300 296 295 296 297 295 293 293 296 297 298 297 293 292 292 293 293 293 294 292
240 243 250 255 259 263 266 268 267 268 270 279 282 283 291 298 298 296 295 299 302 304 304 305 301 298 300 302 301 299 299 297 296 296 294 293 294 293 292 291 294 295 295 293 291 290 291 292 291